• In Uzbekistan
  • List of Countries
  • For 7 days
  • Water Temperature
  • Satellite Maps
  • Weather Map
  • Weather Widgets
  • user-avatar
    Login

    Hourly Weather Neuquén

    Today, 5 December, Monday

    Time Temperature Precipitation Wind Pressure Humidity
    00:00 +15°C° 0 mm 15 mps 729 mmHg 29%
    01:00 +15°C° 0 mm 14 mps 729 mmHg 31%
    02:00 +14°C° 0 mm 14 mps 729 mmHg 34%
    03:00 +14°C° 0 mm 13 mps 729 mmHg 36%
    04:00 +13°C° 0 mm 12 mps 730 mmHg 38%
    05:00 +14°C° 0 mm 13 mps 730 mmHg 35%
    06:00 +15°C° 0 mm 14 mps 730 mmHg 33%
    07:00 +17°C° 0 mm 15 mps 731 mmHg 30%
    08:00 +18°C° 0 mm 14 mps 731 mmHg 27%
    09:00 +20°C° 0 mm 14 mps 731 mmHg 23%
    10:00 +22°C° 0 mm 14 mps 731 mmHg 20%
    11:00 +23°C° 0 mm 14 mps 730 mmHg 19%
    12:00 +23°C° 0 mm 14 mps 730 mmHg 18%
    13:00 +24°C° 0 mm 14 mps 730 mmHg 18%
    14:00 +24°C° 0 mm 14 mps 730 mmHg 18%
    15:00 +24°C° 0 mm 13 mps 730 mmHg 18%
    16:00 +24°C° 0 mm 13 mps 730 mmHg 18%
    17:00 +23°C° 0 mm 12 mps 731 mmHg 22%
    18:00 +22°C° 0 mm 11 mps 731 mmHg 25%
    19:00 +21°C° 0 mm 10 mps 732 mmHg 28%
    20:00 +18°C° 0 mm 10 mps 732 mmHg 32%
    21:00 +17°C° 0 mm 10 mps 733 mmHg 36%
    22:00 +16°C° 0 mm 11 mps 733 mmHg 40%
    23:00 +16°C° 0 mm 10 mps 733 mmHg 42%

    Tomorrow, 6 December, Tuesday

    Time Temperature Precipitation Wind Pressure Humidity
    00:00 +15°C° 0 mm 9 mps 733 mmHg 44%
    01:00 +15°C° 0 mm 8 mps 733 mmHg 46%
    02:00 +13°C° 0 mm 8 mps 733 mmHg 48%
    03:00 +14°C° 0 mm 7 mps 733 mmHg 49%
    04:00 +12°C° 0 mm 7 mps 733 mmHg 51%
    05:00 +15°C° 0 mm 6 mps 733 mmHg 46%
    06:00 +16°C° 0 mm 6 mps 733 mmHg 41%
    07:00 +19°C° 0 mm 6 mps 733 mmHg 37%
    08:00 +20°C° 0 mm 5 mps 733 mmHg 32%
    09:00 +22°C° 0 mm 4 mps 733 mmHg 28%
    10:00 +24°C° 0 mm 3 mps 733 mmHg 23%
    11:00 +25°C° 0 mm 4 mps 732 mmHg 21%
    12:00 +26°C° 0 mm 5 mps 731 mmHg 19%
    13:00 +28°C° 0 mm 5 mps 731 mmHg 16%
    14:00 +28°C° 0 mm 5 mps 730 mmHg 16%
    15:00 +28°C° 0 mm 6 mps 729 mmHg 15%
    16:00 +29°C° 0 mm 6 mps 729 mmHg 15%
    17:00 +28°C° 0 mm 5 mps 729 mmHg 16%
    18:00 +26°C° 0 mm 4 mps 729 mmHg 18%
    19:00 +25°C° 0 mm 3 mps 729 mmHg 20%
    20:00 +25°C° 0 mm 4 mps 730 mmHg 22%
    21:00 +23°C° 0 mm 6 mps 730 mmHg 24%
    22:00 +22°C° 0 mm 7 mps 731 mmHg 25%
    23:00 +21°C° 0 mm 7 mps 731 mmHg 29%

    Day after tomorrow, 7 December, Wednesday

    Time Temperature Precipitation Wind Pressure Humidity
    00:00 +20°C° 0 mm 7 mps 731 mmHg 32%
    01:00 +18°C° 0 mm 7 mps 731 mmHg 35%
    02:00 +18°C° 0 mm 7 mps 731 mmHg 36%
    03:00 +17°C° 0 mm 6 mps 731 mmHg 38%
    04:00 +17°C° 0 mm 6 mps 731 mmHg 39%
    05:00 +19°C° 0 mm 6 mps 732 mmHg 35%
    06:00 +21°C° 0 mm 6 mps 732 mmHg 32%
    07:00 +22°C° 0 mm 7 mps 733 mmHg 28%
    08:00 +24°C° 0 mm 6 mps 733 mmHg 26%
    09:00 +26°C° 0 mm 6 mps 733 mmHg 24%
    10:00 +27°C° 0 mm 6 mps 733 mmHg 22%
    11:00 +28°C° 0 mm 5 mps 733 mmHg 21%
    12:00 +28°C° 0 mm 5 mps 733 mmHg 20%
    13:00 +28°C° 0 mm 4 mps 733 mmHg 20%
    14:00 +28°C° 0 mm 4 mps 732 mmHg 19%
    15:00 +28°C° 0 mm 4 mps 732 mmHg 19%
    16:00 +28°C° 0 mm 4 mps 732 mmHg 19%
    17:00 +27°C° 0 mm 4 mps 733 mmHg 21%
    18:00 +26°C° 0 mm 4 mps 733 mmHg 23%
    19:00 +25°C° 0 mm 4 mps 733 mmHg 25%
    20:00 +23°C° 0 mm 5 mps 734 mmHg 30%
    21:00 +21°C° 0 mm 5 mps 734 mmHg 36%
    22:00 +20°C° 0 mm 6 mps 734 mmHg 41%
    23:00 +19°C° 0 mm 5 mps 734 mmHg 44%

    8 December, Thursday

    Time Temperature Precipitation Wind Pressure Humidity
    00:00 +19°C° 0 mm 4 mps 734 mmHg 46%
    01:00 +18°C° 0 mm 3 mps 734 mmHg 48%
    02:00 +17°C° 0 mm 3 mps 734 mmHg 49%
    03:00 +17°C° 0 mm 3 mps 735 mmHg 49%
    04:00 +17°C° 0 mm 3 mps 735 mmHg 50%
    05:00 +18°C° 0 mm 4 mps 735 mmHg 45%
    06:00 +20°C° 0 mm 4 mps 735 mmHg 41%
    07:00 +22°C° 0 mm 5 mps 736 mmHg 37%
    08:00 +24°C° 0 mm 6 mps 735 mmHg 33%
    09:00 +27°C° 0 mm 6 mps 735 mmHg 29%
    10:00 +28°C° 0 mm 6 mps 734 mmHg 25%
    11:00 +30°C° 0 mm 6 mps 733 mmHg 23%
    12:00 +32°C° 0 mm 7 mps 732 mmHg 20%
    13:00 +33°C° 0 mm 7 mps 731 mmHg 17%
    14:00 +33°C° 0 mm 6 mps 731 mmHg 17%
    15:00 +33°C° 0 mm 6 mps 730 mmHg 16%
    16:00 +34°C° 0 mm 6 mps 729 mmHg 16%
    17:00 +32°C° 0 mm 5 mps 729 mmHg 17%
    18:00 +30°C° 0 mm 5 mps 729 mmHg 19%
    19:00 +28°C° 0 mm 4 mps 729 mmHg 21%
    20:00 +28°C° 0 mm 5 mps 729 mmHg 22%
    21:00 +27°C° 0 mm 5 mps 729 mmHg 23%
    22:00 +27°C° 0 mm 6 mps 729 mmHg 24%
    23:00 +26°C° 0 mm 6 mps 729 mmHg 24%

    9 December, Friday

    Time Temperature Precipitation Wind Pressure Humidity
    00:00 +24°C° 0 mm 6 mps 729 mmHg 23%
    01:00 +23°C° 0 mm 7 mps 728 mmHg 23%
    02:00 +22°C° 0 mm 6 mps 729 mmHg 24%
    03:00 +21°C° 0 mm 5 mps 729 mmHg 25%
    04:00 +20°C° 0 mm 5 mps 729 mmHg 26%
    05:00 +21°C° 0 mm 6 mps 729 mmHg 23%
    06:00 +23°C° 0 mm 7 mps 730 mmHg 20%
    07:00 +26°C° 0 mm 8 mps 730 mmHg 17%
    08:00 +27°C° 0 mm 8 mps 730 mmHg 15%
    09:00 +29°C° 0 mm 9 mps 730 mmHg 14%
    10:00 +31°C° 0 mm 9 mps 730 mmHg 12%
    11:00 +32°C° 0 mm 10 mps 729 mmHg 11%
    12:00 +33°C° 0 mm 11 mps 728 mmHg 11%
    13:00 +34°C° 0 mm 11 mps 728 mmHg 10%
    14:00 +33°C° 0 mm 12 mps 727 mmHg 12%
    15:00 +33°C° 0 mm 12 mps 727 mmHg 13%
    16:00 +33°C° 0 mm 13 mps 726 mmHg 14%
    17:00 +31°C° 0 mm 12 mps 727 mmHg 18%
    18:00 +28°C° 0 mm 12 mps 727 mmHg 23%
    19:00 +27°C° 0 mm 11 mps 728 mmHg 27%
    20:00 +26°C° 0 mm 11 mps 728 mmHg 30%
    21:00 +24°C° 0 mm 11 mps 728 mmHg 33%
    22:00 +23°C° 0 mm 11 mps 728 mmHg 36%
    23:00 +23°C° 0 mm 11 mps 727 mmHg 36%

    10 December, Saturday

    Time Temperature Precipitation Wind Pressure Humidity
    00:00 +23°C° 0 mm 12 mps 726 mmHg 37%
    01:00 +23°C° 0 mm 13 mps 725 mmHg 38%
    02:00 +22°C° 0 mm 12 mps 725 mmHg 39%
    03:00 +22°C° 0 mm 12 mps 724 mmHg 41%
    04:00 +22°C° 0 mm 12 mps 724 mmHg 42%
    05:00 +23°C° 0 mm 13 mps 724 mmHg 39%
    06:00 +24°C° 0 mm 15 mps 724 mmHg 37%
    07:00 +27°C° 0 mm 17 mps 724 mmHg 34%
    08:00 +27°C° 0 mm 17 mps 725 mmHg 33%
    09:00 +27°C° 0 mm 17 mps 725 mmHg 33%
    10:00 +27°C° 0 mm 17 mps 725 mmHg 32%
    11:00 +28°C° 0 mm 17 mps 725 mmHg 30%
    12:00 +28°C° 0 mm 18 mps 725 mmHg 28%
    13:00 +28°C° 0 mm 18 mps 725 mmHg 25%
    14:00 +28°C° 0 mm 18 mps 725 mmHg 24%
    15:00 +27°C° 0 mm 18 mps 725 mmHg 22%
    16:00 +27°C° 0 mm 18 mps 726 mmHg 20%
    17:00 +24°C° 0 mm 17 mps 726 mmHg 23%
    18:00 +23°C° 0 mm 15 mps 727 mmHg 25%
    19:00 +20°C° 0 mm 13 mps 727 mmHg 28%
    20:00 +19°C° 0 mm 13 mps 728 mmHg 29%
    21:00 +18°C° 0 mm 12 mps 729 mmHg 30%
    22:00 +17°C° 0 mm 12 mps 730 mmHg 31%
    23:00 +16°C° 0 mm 11 mps 730 mmHg 32%
    Show more